Location: Mascot Post Office (historical)
(40.2645°N, 99.5462°W)
Time: 10:20:55
(UTC+00:00)

NOSS 3-4 (C) - Pass Details

Date: 25 October 2020
Orbit: 886 x 1326 km, 63.4° (Epoch: 06 November)

Event Time Altitude Azimuth Distance (km) Brightness Sun altitude
Rises 02:57:22 0° 328° (NNW) 3,835 7.2 -37.2°
Reaches altitude 10° 02:59:59 10° 333° (NNW) 2,939 6.4 -37.6°
Enters shadow 03:03:36 32° 349° (N) 1,840 5.0 -38.3°
